Location: Gu�tanj
(46.5431°N, 14.9692°E)
Time: 15:21:57
(UTC+00:00)

OBJECT-B - Pass Details

Date: 03 March 2021
Orbit: 414 x 427 km, 97.0° (Epoch: 11 April)

Event Time Altitude Azimuth Distance (km) Brightness Sun altitude
Exits shadow 19:38:15 17° 303° (WNW) 1,153 3.7 -29.3°
Drops below altitude 10° 19:39:27 10° 320° (NW) 1,514 4.3 -29.5°
Sets 19:41:44 0° 336° (NNW) 2,381 5.2 -29.8°
